Home   Weather   Beckum   Past weeks

Flag for Germany Past Weather in Beckum, North Rhine-Westphalia, Germany — Yesterday and Last 2 Weeks

Now
55 °F

Rain. Passing clouds.


Feels Like: 54 °F
Forecast: 59 / 69 °F
Wind: 6 mph from North

Location: Paderborn / Lippstadt

Current Time: Jul 26, 2017 at 2:57:55 am

Latest Report: Jul 26, 2017 at 1:50 am


Visibility: 4 mi

Pressure: 29.71 "Hg

Humidity: 100%

Dew Point: 55 °F

Location of BeckumLocation

Past Weather in Beckum — Graph

°F

Beckum Temperature Yesterday

Maximum temperature yesterday: 59 °F (at 1:20 pm)
Minimum temperature yesterday: 55 °F (at 12:20 am)
Average temperature yesterday: 57 °F

High & Low Weather Summary for the Past Weeks

 TemperatureHumidityPressure
High90 °F (Jul 19, 4:20 pm)100% (Jul 11, 1:50 am)30.24 "Hg (Jul 11, 1:50 am)
Low48 °F (Jul 13, 4:50 am)33% (Jul 19, 4:20 pm)29.65 "Hg (Jul 25, 8:20 pm)
Average63 °F73%29.98 "Hg
* Reported Jul 11 1:20 am — Jul 26 1:20 am, Beckum. Weather by CustomWeather, © 2017

Note: Actual official high and low records may vary slightly from our data, if they occured in-between our weather recording intervals... More about our weather records

Advertising

Beckum Weather History for the Previous 24 Hours

Scroll right to see more
 ConditionsComfort  
Time TempWeatherWind HumidityBarometerVisibility
1:20 am
Wed, Jul 26
55 °FRain. Mostly cloudy.6 mph100%29.71 "Hg4 mi
12:50 am57 °FLight rain. Partly cloudy.6 mph100%29.71 "Hg4 mi
12:20 am57 °FLight rain. Passing clouds.3 mph94%29.71 "Hg4 mi
11:50 pm
Tue, Jul 25
57 °FRain. Passing clouds.5 mph94%29.74 "Hg4 mi
11:20 pm57 °FRain. Passing clouds.6 mph94%29.71 "Hg4 mi
10:50 pm57 °FRain. Passing clouds.7 mph94%29.71 "Hg4 mi
10:20 pm57 °FRain. Fog.8 mph100%29.71 "Hg2 mi
9:50 pm57 °FRain. Fog.9 mph100%29.68 "Hg2 mi
9:20 pm59 °FRain. Fog.10 mph94%29.68 "Hg2 mi
8:50 pm59 °FLight rain. Fog.8 mph100%29.68 "Hg1 mi
8:20 pm59 °FLight rain. Fog.10 mph100%29.65 "Hg2 mi
7:50 pm59 °FLight rain. Fog.6 mph94%29.68 "Hg1 mi
7:20 pm59 °FLight rain. Broken clouds.5 mph94%29.68 "HgN/A
6:50 pm59 °FLight rain. Broken clouds.6 mph94%29.68 "HgN/A
6:20 pm59 °FRain. Broken clouds.8 mph100%29.68 "Hg2 mi
5:50 pm59 °FLight rain. Partly sunny.6 mph100%29.68 "Hg4 mi
5:20 pm59 °FLight rain. Broken clouds.7 mph100%29.68 "Hg4 mi
4:50 pm59 °FLight rain. Partly sunny.7 mph100%29.68 "Hg3 mi
4:20 pm59 °FLight rain. Partly sunny.7 mph100%29.71 "Hg4 mi
3:50 pm59 °FLight rain. Partly sunny.8 mph100%29.71 "Hg4 mi
3:20 pm59 °FLight rain. Partly sunny.9 mph100%29.71 "Hg4 mi
2:50 pm59 °FLight rain. Partly sunny.8 mph94%29.71 "Hg4 mi
2:20 pm59 °FLight rain. Partly sunny.8 mph94%29.71 "Hg5 mi
1:50 pm59 °FLight rain. Partly sunny.9 mph94%29.71 "Hg5 mi
1:20 pm59 °FLight rain. Partly sunny.8 mph100%29.74 "Hg4 mi
12:50 pm57 °FLight rain. Partly sunny.9 mph100%29.74 "Hg5 mi
12:20 pm57 °FLight rain. Partly sunny.9 mph100%29.74 "Hg5 mi
11:50 am57 °FLight rain. Partly sunny.8 mph94%29.74 "Hg4 mi
11:20 am55 °FLight rain. Mostly cloudy.9 mph100%29.74 "Hg4 mi
10:50 am55 °FLight rain. Mostly cloudy.9 mph100%29.74 "Hg4 mi
10:20 am55 °FLight rain. Mostly cloudy.9 mph94%29.77 "Hg4 mi
9:20 am55 °FRain. Fog.8 mph100%29.77 "Hg2 mi
8:50 am55 °FRain. Mostly cloudy.8 mph94%29.74 "Hg4 mi
8:20 am55 °FRain. Mostly cloudy.8 mph94%29.74 "Hg4 mi
7:50 am55 °FRain. Fog.9 mph94%29.74 "Hg2 mi
7:20 am55 °FRain. Fog.9 mph94%29.74 "Hg2 mi
6:50 am55 °FRain. Fog.7 mph94%29.77 "Hg1 mi
6:20 am55 °FRain. Fog.9 mph94%29.74 "Hg1 mi
5:50 am55 °FRain. Low clouds.8 mph94%29.77 "Hg2 mi
4:50 am55 °FRain. Low clouds.9 mph94%29.77 "Hg2 mi
4:20 am55 °FRain. Low clouds.7 mph100%29.77 "Hg3 mi
3:20 am55 °FRain. Passing clouds.8 mph100%29.77 "Hg3 mi
2:50 am55 °FRain. Low clouds.9 mph100%29.80 "Hg3 mi
Weather by CustomWeather, © 2017

See weather overviewHow to use our weather pages